#timestamp,LO_Frequency,Hit,StdDev 
1645592415.8,286046995.4,N
1645592435.6,286046998.6,N
1645592455.4,286047000.2,N
1645592475.3,286047000.0,N
1645592495.1,286046998.0,N
1645592515.9,286046997.0,N
1645592535.7,286047005.6,N
1645592555.5,286046998.7,N
1645592575.4,286047001.4,N
1645592595.2,286047005.6,N
1645592615.0,286047006.0,N
1645592616.0,286047006.0,N
1645592635.8,286047007.3,N
1645592655.6,286047005.4,N
1645592675.5,286047010.4,N
1645592695.3,286047008.4,N
1645592715.1,286047011.1,N
1645592735.9,286047009.6,N
1645592755.7,286047008.4,N
1645592775.6,286047002.9,N
1645592795.4,286047000.1,N
1645592815.2,286046997.5,N
1645592835.1,286047003.9,N
1645592836.0,286047003.9,N
1645592855.8,286047000.8,N
1645592875.6,286047002.8,N
1645592895.5,286046997.6,N
1645592915.3,286046992.7,N
1645592935.2,286046988.3,N
1645592955.9,286046984.0,Y
1645592975.7,286046984.3,P
1645592995.6,286046985.4,N
1645593015.4,286046983.2,N
1645593035.2,286046986.5,N
1645593055.1,286046993.6,N
1645593056.0,286046993.6,N
1645593075.8,286046995.1,N
1645593095.7,286046999.8,N
1645593115.5,286047002.9,N
1645593135.3,286047004.5,N
1645593155.2,286046999.8,N
1645593175.0,286047002.9,N
1645593175.9,286047002.9,N
1645593195.8,286047001.0,N
1645593215.6,286047003.6,N
1645593235.4,286047005.0,N
1645593255.3,286047014.1,N
1645593275.1,286047014.8,N
1645593295.9,286047010.7,N
1645593315.7,286047007.0,N
1645593335.5,286047004.7,N
1645593355.4,286047003.6,N
1645593375.2,286047002.2,N
1645593395.1,286046999.5,N
1645593396.0,286046999.5,N
1645593415.8,286047001.3,N
1645593435.6,286047006.2,N
1645593455.5,286047010.7,N
1645593475.3,286047008.1,N
1645593495.2,286047003.4,N
1645593515.9,286047002.5,N
1645593535.7,286047006.8,N
1645593555.6,286047008.6,N
1645593575.4,286047006.5,N
1645593595.2,286047015.0,N
1645593615.1,286047014.8,N
1645593616.0,286047014.8,N
1645593635.8,286047011.2,N
1645593655.7,286047015.8,Y
1645593675.5,286047009.1,P
1645593695.3,286047007.0,P
1645593715.2,286047017.2,P
1645593735.0,286047007.7,N
1645593735.9,286047007.7,N
1645593755.7,286047013.7,Y
1645593775.6,286046999.9,P
1645593795.4,286047001.9,N
1645593815.3,286047005.5,N
1645593835.1,286046998.1,N
1645593855.8,286046998.1,N
1645593875.7,286047004.0,N
1645593895.5,286047009.7,N
1645593915.4,286047009.9,N
1645593935.2,286047006.0,N
1645593955.0,286047000.2,N
1645593955.9,286047000.2,N
1645593975.8,286046996.2,N
1645593995.6,286046998.8,N
1645594015.4,286046997.2,N
1645594035.3,286046999.2,N
1645594055.1,286046993.9,N
1645594075.9,286046992.2,N
1645594095.7,286046997.2,N
1645594115.5,286046997.5,N
1645594135.4,286046992.1,N
1645594155.2,286046993.9,N
1645594175.0,286046988.5,N
1645594175.9,286046988.5,N
1645594195.8,286046996.8,N
1645594215.6,286047000.7,N
1645594235.5,286047004.2,N
1645594255.3,286047002.8,N
1645594275.1,286047005.5,N
1645594295.9,286046999.2,N
1645594315.7,286046994.7,N
1645594335.5,286046993.3,N
1645594355.4,286046991.9,N
1645594375.2,286047002.7,N
1645594395.1,286046997.5,N
1645594396.0,286046997.5,N
1645594415.8,286046999.6,N
1645594435.6,286046998.8,N
1645594455.5,286047002.4,N
1645594475.3,286047004.3,N
1645594495.1,286046997.6,N
1645594515.9,286047005.0,N
1645594535.7,286047005.0,N
1645594555.6,286047002.9,N
1645594575.4,286047003.4,N
1645594595.2,286047001.0,N
1645594615.1,286047000.8,N
1645594616.0,286047000.8,N
1645594635.8,286047004.2,N
1645594655.7,286047001.3,N
1645594675.5,286046999.4,N
1645594695.3,286046998.2,N
1645594715.2,286046997.1,N
1645594735.0,286046992.4,N
1645594735.9,286046992.4,N
1645594755.7,286046991.7,N
1645594775.6,286046996.1,N
1645594795.4,286046990.3,N
1645594815.3,286046993.0,N
1645594835.1,286046990.7,N
1645594836.0,286046990.7,N
1645594855.8,286046998.2,N
1645594875.7,286046998.7,N
1645594895.5,286046995.5,N
1645594915.4,286046993.8,N
1645594935.2,286047001.7,N
1645594955.0,286046997.3,N
1645594955.9,286046997.3,N
1645594975.8,286047000.8,N
1645594995.6,286046999.4,N
1645595015.4,286047003.3,N
1645595035.3,286047005.8,N
1645595055.1,286047005.1,N
1645595075.9,286047006.1,N
1645595095.7,286047001.7,N
1645595115.5,286047007.8,N
1645595135.4,286047006.9,N
1645595155.2,286047007.6,N
1645595175.0,286047009.5,N
1645595175.9,286047009.5,N
1645595195.8,286047017.0,N
1645595215.6,286047014.0,N
1645595235.4,286047005.0,N
1645595255.3,286047009.4,N
1645595275.1,286047012.3,N
1645595295.9,286047006.3,N
1645595315.7,286047012.4,N
1645595335.5,286047014.3,N
1645595355.4,286047011.7,N
1645595375.2,286047005.5,N
1645595395.0,286047007.4,N
1645595395.9,286047007.4,N
1645595415.8,286047010.0,N
1645595435.6,286047006.1,N
1645595455.5,286047006.8,N
1645595475.3,286047017.9,Y
1645595495.1,286047010.4,P
1645595515.9,286047005.5,P
1645595535.7,286047008.9,P
1645595555.6,286047012.8,Y
1645595575.4,286047008.3,P
1645595595.2,286047014.9,P
1645595615.1,286047008.1,N
1645595616.0,286047008.1,N
1645595635.8,286047008.6,Y
1645595655.7,286046995.9,P
1645595675.5,286046997.2,N
1645595695.3,286046993.3,N
1645595715.2,286046997.0,N
1645595735.0,286047007.5,N
1645595735.9,286047007.5,N
1645595755.7,286047006.6,N
1645595775.6,286046997.1,N
1645595795.4,286046990.2,N
1645595815.3,286046985.3,N
1645595835.1,286046982.8,N
1645595836.0,286046982.8,N
1645595855.8,286046989.7,N
1645595875.7,286046991.9,N
1645595895.5,286047002.7,N
1645595915.4,286046994.5,N
1645595935.2,286046986.2,N
1645595955.0,286046989.6,N
1645595955.9,286046989.6,N
1645595975.8,286046996.1,N
1645595995.6,286046992.0,N
